Find Flock 4be-24

NORAD ID: 60505 Int'l Des: 2024-149 Owner: PLAN Country: US Constellation: planet operational
LEOCIRCULARRETROGRADESSO

当前视图

正在加载3D地球...

关于 Flock 4be-24

正在加载描述...

即将过境

Passes for default location (London). Set your location on the main map for personalized predictions.

高度历史

Loading altitude history...

两行轨道根数

1 60505U 24149AP 26149.22903023 .00023933 00000-0 55732-3 0 9994
2 60505 97.3721 233.4229 0003155 14.6749 345.4590 15.42274047 99449
Epoch: May 29, 2026 • Age: 19 hours

当前状态

高度 442.4 km
速度 7.65 km/s
星下点 36.58°N, 23.92°W
发射日期 Aug 16, 2024
运行时间 1.7 years
类型 earth observation

技术详情

分类 Payload
质量 5.70 kg
干质量 5.70 kg
总质量 5.70 kg
长度 0.30 m
直径 0.10 m
跨度 0.30 m
形状 Box+2 pan
制造商 PLAN
平台类型 Cubesat 3U
阶段状态 In Orbit
所有者/国家 PLAN/US

Most Searched